Powrót do katalogu

JACK-002

AktywnyKrótkofalarstwoSSO
NORAD 68417·PAYLOAD·🇰🇷 South Korea

Wystrzelony Mar 30, 2026 z Vandenberg Space Force Base

Loading…

Następne Przeloty (najbliższe 24 godziny)

TLE

ŚwieżeSource: AMSAT

Epoka: Sep 13, 2026, 20:14 UTC

1 68417U 26067B   26256.84331902  .00005804  00000-0  26991-3 0  9995
2 68417  97.4667 214.4420 0001961  29.1087 331.0258 15.20345854 25419

Śledź JACK-002 w czasie rzeczywistym z AllMySat

Download on the App Store